www.pogodaiklimat.ru

Погода и климат >> Архив погоды >> Норвегия >> Рорвик аэропорт


ПОГОДА в Рорвик аэропорту

  • Прогноз погоды в Рорвик аэропорту
  • Монитор погоды в Рорвик аэропорту

АРХИВ ПОГОДЫ в Рорвик аэропорту

Время (UTC), дата Ветер
(напр.,м/с)
 
Видим.   Явления Облачность Т
(С)
Тd
(С)
f
(%)
Тe
(С)
Тes
(С)
Комфортность P
(гПа)
Po
(гПа)
Тmin
(С)
Tmax
(С)
R
(мм)
R24
(мм)
S
(см)
16 16.08 Ю 5
{10}
н/о н/о +14.6 +10.4 76 +13 +13 1006.3 1005.8
17 16.08 ЮЗ 5
{7}
н/о н/о +13.9 +9.9 77 +12 +12 1006.2 1005.6
18 16.08 Ю 3
{10}
н/о н/о +13.4 +9.8 79 +12 +12 1006.0 1005.5 +12.7 +15.7
19 16.08 ЮЗ 3
{5}
н/о н/о +12.4 +8.9 79 +11 +11 1005.9 1005.4
20 16.08 СЗ 1
{4}
н/о н/о +9.2 +8.0 92 +8 +8 1005.7 1005.1
21 16.08 СВ 2
{3}
н/о н/о +8.1 +8.0 99 +6 +6 1005.7 1005.1
22 16.08 СВ 2
{3}
н/о н/о +8.9 +8.9 100 +7 +7 1005.4 1004.8
23 16.08 СВ 2
{2}
н/о н/о +9.1 +8.5 96 +7 +7 1004.9 1004.4
00 17.08 СВ 2
{5}
н/о н/о +9.6 +8.7 94 +8 +8 1004.5 1004.0
01 17.08 СВ 2
{3}
н/о н/о +10.5 +8.9 90 +9 +9 1003.8 1003.2
02 17.08 С 2
{3}
н/о н/о +10.0 +9.7 98 +8 +8 1003.4 1002.8
03 17.08 СВ 2
{3}
н/о н/о +10.1 +9.8 98 +8 +8 1002.5 1001.9
04 17.08 С 1
{2}
н/о н/о +10.3 +10.2 99 +10 +10 1001.5 1000.9
05 17.08 В 2
{3}
н/о н/о +12.2 +11.7 97 +11 +11 1001.0 1000.4
06 17.08 СВ 2
{5}
н/о н/о +14.2 +12.4 89 +14 +14 1000.3 999.8 +7.9 +14.2
07 17.08 В 4
{5}
н/о н/о +16.4 +13.1 81 +16 +16 999.6 999.1
08 17.08 В 4
{8}
н/о н/о +17.5 +12.6 73 +17 +17 999.1 998.5
09 17.08 В 3
{7}
н/о н/о +17.5 +13.0 75 +18 +18 998.5 998.0
10 17.08 В 5
{9}
н/о н/о +18.2 +12.4 69 +18 +18 997.8 997.2
11 17.08 ЮВ 5
{11}
н/о н/о +19.1 +12.4 65 +20 +20 997.4 996.9
12 17.08 ЮВ 6
{14}
н/о н/о +18.6 +11.4 63 +19 +19 997.0 996.4
13 17.08 ЮВ 7
{11}
н/о н/о +19.1 +10.4 57 +19 +19 996.3 995.8
14 17.08 ЮВ 8
{11}
н/о н/о +19.5 +10.0 54 +20 +20 995.9 995.3
15 17.08 ЮВ 7
{11}
н/о н/о +18.8 +10.1 57 +19 +19 995.7 995.2
16 17.08 ЮВ 8
{13}
н/о н/о +17.8 +10.4 62 +17 +17 995.2 994.7
17 17.08 ЮВ 8
{12}
н/о н/о +17.5 +10.9 65 +16 +16 994.8 994.2
18 17.08 ЮВ 7
{13}
н/о н/о +17.2 +10.8 66 +16 +16 994.6 994.1 +14.2 +20.2
19 17.08 ЮВ 7
{14}
н/о н/о +17.3 +10.7 65 +16 +16 994.5 993.9
20 17.08 ЮВ 7
{12}
н/о н/о +17.1 +10.7 66 +16 +16 994.3 993.8
21 17.08 ЮВ 6
{12}
н/о н/о +16.9 +11.0 68 +16 +16 994.4 993.8
22 17.08 ЮВ 4
{9}
н/о н/о +16.8 +11.1 69 +16 +16 994.7 994.1
23 17.08 ЮВ 4
{8}
н/о н/о +16.8 +11.5 71 +16 +16 995.0 994.5
00 18.08 ЮВ 5
{14}
н/о н/о +16.7 +11.8 73 +16 +16 995.4 994.8
01 18.08 ЮВ 2
{6}
н/о н/о +16.3 +12.1 76 +16 +16 995.5 994.9
02 18.08 З 1
{3}
н/о н/о +14.8 +13.4 91 +15 +15 995.5 994.9
03 18.08 З 3
{4}
н/о н/о +14.3 +14.1 99 +13 +13 995.9 995.3
04 18.08 З 3
{8}
н/о н/о +13.5 +13.5 100 +12 +12 996.3 995.8
05 18.08 Ю 1
{5}
н/о н/о +13.2 +13.2 100 +13 +13 997.2 996.7
06 18.08 З 4
{12}
н/о н/о +11.8 +11.2 96 +9 +9 998.3 997.8 +11.8 +17.4
07 18.08 ЮЗ 5
{6}
н/о н/о +12.6 +12.5 99 +10 +10 999.0 998.4
08 18.08 Ю 2
{6}
н/о н/о +12.7 +12.6 99 +12 +12 999.4 998.9
09 18.08 Ю 3
{5}
н/о н/о +13.3 +12.0 92 +12 +12 999.9 999.4
10 18.08 Ю 3
{5}
н/о н/о +13.9 +12.6 92 +13 +13 1000.4 999.9
11 18.08 ЮВ 3
{4}
н/о н/о +15.0 +11.6 80 +14 +14 1000.6 1000.0
12 18.08 ЮВ 3
{6}
н/о н/о +15.0 +12.0 82 +14 +14 1000.8 1000.2
13 18.08 В 3
{5}
н/о н/о +16.8 +12.6 76 +17 +17 1000.6 1000.0
14 18.08 ЮВ 2
{5}
н/о н/о +17.0 +12.1 73 +17 +17 1000.5 999.9
15 18.08 ЮВ 1
{4}
н/о н/о +17.5 +10.2 62 +19 +19 1000.0 999.5
16 18.08 В 1
{3}
н/о н/о +17.8 +9.9 60 +19 +19 999.9 999.3
17 18.08 СВ 3
{4}
н/о н/о +16.3 +11.0 71 +16 +16 999.7 999.1
18 18.08 СВ 4
{6}
н/о н/о +14.5 +11.8 84 +13 +13 999.4 998.8 +11.8 +18.0
19 18.08 СВ 5
{6}
н/о н/о +12.9 +12.1 95 +11 +11 999.2 998.6
20 18.08 СВ 5
{8}
н/о н/о +12.7 +11.4 92 +10 +10 998.8 998.3
21 18.08 СВ 4
{8}
н/о н/о +12.4 +11.0 91 +10 +10 998.5 998.0
22 18.08 СВ 3
{6}
н/о н/о +12.2 +10.8 91 +11 +11 998.1 997.6
23 18.08 В 2
{4}
н/о н/о +11.7 +10.5 92 +10 +10 997.8 997.3
00 19.08 СВ 1
{8}
н/о н/о +10.4 +9.8 96 +10 +10 997.6 997.0
01 19.08 В 2
{3}
н/о н/о +10.5 +10.4 99 +9 +9 997.1 996.6
02 19.08 В 3
{3}
н/о н/о +11.1 +10.0 93 +9 +9 996.7 996.2
03 19.08 В 3
{4}
н/о н/о +11.7 +9.8 88 +10 +10 996.6 996.0
04 19.08 В 2
{4}
н/о н/о +12.4 +9.8 84 +11 +11 996.4 995.9
05 19.08 В 1
{3}
н/о н/о +14.0 +10.2 78 +14 +14 996.3 995.7
06 19.08 СВ 2
{4}
н/о н/о +14.1 +10.3 78 +14 +14 996.0 995.5 +10.1 +14.4
07 19.08 Ю 1
{3}
н/о н/о +16.1 +10.9 71 +17 +17 996.0 995.5
08 19.08 Ю 2
{3}
н/о н/о +17.4 +10.8 65 +18 +18 996.0 995.4
09 19.08 Ю 2
{3}
н/о н/о +17.6 +9.8 60 +18 +18 995.8 995.3
10 19.08 В 2
{3}
н/о н/о +18.8 +11.1 61 +20 +20 996.0 995.4
11 19.08 ЮВ 2
{4}
н/о н/о +18.1 +9.7 58 +19 +19 996.2 995.7
12 19.08 ЮВ 2
{4}
н/о н/о +17.8 +10.2 61 +18 +18 996.7 996.2
13 19.08 Ю 3
{5}
н/о н/о +18.3 +8.6 53 +19 +19 997.1 996.5
14 19.08 Ю 3
{4}
н/о н/о +18.2 +9.0 55 +19 +19 997.3 996.8
15 19.08 Ю 2
{3}
н/о н/о +19.5 +9.1 51 +21 +21 комфорт 997.4 996.9
16 19.08 ЮЗ 3
{4}
н/о н/о +18.2 +9.3 56 +19 +19 998.0 997.4
17 19.08 З 3
{4}
н/о н/о +16.9 +9.6 62 +17 +17 998.8 998.2
18 19.08 З 3
{5}
н/о н/о +15.7 +9.6 67 +15 +15 999.3 998.8 +14.1 +19.5
19 19.08 ЮЗ 3
{6}
н/о н/о +14.1 +11.8 86 +13 +13 1000.2 999.6
20 19.08 З 4
{6}
н/о н/о +14.2 +13.1 93 +13 +13 1000.7 1000.2
21 19.08 ЮЗ 2
{5}
н/о н/о +13.6 +13.0 96 +13 +13 1001.4 1000.8
22 19.08 штиль 0
{3}
н/о н/о +12.2 +11.9 98 +12 +12 1001.8 1001.3
23 19.08 Ю 2
{2}
н/о н/о +11.5 +11.5 100 +10 +10 1002.2 1001.6
00 20.08 В 2
{6}
н/о н/о +10.5 +10.5 100 +9 +9 1002.4 1001.9
01 20.08 В 2
{3}
н/о н/о +11.4 +11.4 100 +10 +10 1002.4 1001.8
02 20.08 В 1
{4}
н/о н/о +11.9 +11.6 98 +12 +12 1002.7 1002.2
03 20.08 СВ 2
{3}
н/о н/о +11.9 +11.1 95 +11 +11 1003.0 1002.5
04 20.08 В 2
{4}
н/о н/о +12.3 +11.2 93 +11 +11 1003.2 1002.7
05 20.08 ЮВ 3
{5}
н/о н/о +13.5 +10.9 84 +12 +12 1003.7 1003.1
06 20.08 Ю 3
{6}
н/о н/о +13.9 +11.3 84 +13 +13 1004.3 1003.8 +10.0 +15.6
07 20.08 ЮЗ 6
{7}
н/о н/о +14.3 +12.0 86 +12 +12 1005.0 1004.4
08 20.08 ЮЗ 6
{8}
н/о н/о +14.9 +11.9 82 +13 +13 1005.7 1005.1
09 20.08 Ю 4
{9}
н/о н/о +15.9 +12.8 82 +15 +15 1006.2 1005.6
10 20.08 Ю 4
{6}
н/о н/о +15.2 +11.6 79 +14 +14 1006.5 1005.9
11 20.08 ЮЗ 4
{7}
н/о н/о +14.9 +11.3 79 +14 +14 1007.1 1006.6
12 20.08 ЮЗ 4
{9}
н/о н/о +15.0 +10.8 76 +14 +14 1007.7 1007.1
13 20.08 ЮЗ 4
{6}
н/о н/о +14.9 +10.5 75 +14 +14 1008.0 1007.4
14 20.08 ЮЗ 5
{7}
н/о н/о +16.0 +10.5 70 +15 +15 1008.3 1007.7
15 20.08 ЮЗ 7
{10}
н/о н/о +15.7 +11.1 74 +14 +14 1008.6 1008.1
16 20.08 ЮЗ 7
{10}
н/о н/о +15.2 +11.6 79 +13 +13 1009.1 1008.5
17 20.08 ЮЗ 8
{11}
н/о н/о +14.6 +11.6 82 +12 +12 1009.6 1009.0
18 20.08 ЮЗ 7
{11}
н/о н/о +13.5 +12.4 93 +11 +11 1010.0 1009.4 +13.5 +16.7
19 20.08 ЮЗ 7
{10}
н/о н/о +13.6 +12.0 90 +11 +11 1010.6 1010.0
20 20.08 ЮЗ 8
{12}
н/о н/о +13.5 +10.7 83 +11 +11 1011.0 1010.4
21 20.08 ЮЗ 9
{12}
н/о н/о +13.5 +10.1 80 +11 +11 1011.2 1010.6
22 20.08 ЮЗ 9
{13}
н/о н/о +13.3 +10.5 83 +10 +10 1011.6 1011.0
23 20.08 ЮЗ 7
{12}
н/о н/о +13.1 +10.6 85 +10 +10 1011.9 1011.4
00 21.08 ЮЗ 9
{13}
н/о н/о +13.1 +10.6 85 +10 +10 1012.2 1011.6
01 21.08 Ю 7
{12}
н/о н/о +12.6 +11.2 91 +10 +10 1012.4 1011.8
02 21.08 ЮЗ 9
{14}
н/о н/о +12.4 +12.4 100 +9 +9 1012.7 1012.1
03 21.08 ЮЗ 9
{12}
н/о н/о +13.0 +12.9 99 +10 +10 1012.9 1012.4
04 21.08 ЮЗ 8
{13}
н/о н/о +12.8 +12.8 100 +10 +10 1013.3 1012.7
05 21.08 ЮЗ 11
{17}
н/о н/о +12.5 +11.9 96 +9 +9 1013.8 1013.2
06 21.08 ЮЗ 10
{17}
н/о н/о +12.4 +12.4 100 +9 +9 1014.1 1013.5 +12.3 +13.7
07 21.08 ЮЗ 9
{14}
н/о н/о +13.0 +12.5 97 +10 +10 1014.8 1014.3
08 21.08 ЮЗ 11
{15}
н/о н/о +12.3 +11.8 97 +8 +8 1015.5 1014.9
09 21.08 ЮЗ 9
{14}
н/о н/о +12.5 +12.5 100 +9 +9 1016.0 1015.5
10 21.08 ЮЗ 14
{18}
н/о н/о +12.6 +10.8 89 +8 +8 1016.5 1016.0
11 21.08 ЮЗ 13
{18}
н/о н/о +13.1 +10.8 86 +9 +9 1017.1 1016.6
12 21.08 ЮЗ 11
{18}
н/о н/о +13.0 +11.2 89 +9 +9 1017.7 1017.2
13 21.08 ЮЗ 11
{15}
н/о н/о +12.9 +11.1 89 +9 +9 1018.0 1017.4
14 21.08 ЮЗ 11
{15}
н/о н/о +12.6 +11.8 95 +9 +9 1018.4 1017.8
15 21.08 ЮЗ 10
{15}
н/о н/о +12.6 +11.5 93 +9 +9 1018.8 1018.3
16 21.08 ЮЗ 10
{14}
н/о н/о +12.5 +10.9 90 +9 +9 1019.4 1018.8
17 21.08 ЮЗ 8
{13}
н/о н/о +12.5 +10.2 86 +9 +9 1019.8 1019.2
18 21.08 З 8
{15}
н/о н/о +11.2 +9.1 87 +8 +8 1020.0 1019.4 +11.0 +13.5
19 21.08 ЮЗ 6
{10}
н/о н/о +11.0 +9.4 90 +8 +8 1020.1 1019.6
20 21.08 ЮЗ 6
{10}
н/о н/о +11.3 +9.2 87 +8 +8 1020.2 1019.6
21 21.08 ЮЗ 6
{8}
н/о н/о +11.5 +9.4 87 +9 +9 1020.4 1019.8
22 21.08 ЮЗ 6
{9}
н/о н/о +10.9 +7.4 79 +8 +8 1020.4 1019.8
23 21.08 ЮЗ 5
{8}
н/о н/о +10.9 +8.5 85 +8 +8 1020.3 1019.8
00 22.08 ЮЗ 5
{10}
н/о н/о +10.7 +7.8 82 +8 +8 1020.3 1019.8
01 22.08 ЮЗ 5
{7}
н/о н/о +10.9 +7.2 78 +8 +8 1020.3 1019.7
02 22.08 З 3
{6}
н/о н/о +10.7 +8.1 84 +9 +9 1020.4 1019.8
03 22.08 Ю 3
{5}
н/о н/о +11.0 +9.3 89 +9 +9 1020.2 1019.6
04 22.08 Ю 3
{5}
н/о н/о +10.8 +8.7 87 +9 +9 1019.9 1019.3
05 22.08 ЮВ 2
{4}
н/о н/о +11.1 +9.0 87 +10 +10 1019.7 1019.2
06 22.08 ЮВ 2
{7}
н/о н/о +11.6 +8.8 83 +10 +10 1019.3 1018.8 +10.4 +11.9
07 22.08 В 3
{6}
н/о н/о +12.6 +9.6 82 +11 +11 1018.9 1018.4
08 22.08 В 3
{6}
н/о н/о +13.5 +9.0 74 +12 +12 1018.3 1017.7
09 22.08 В 4
{7}
н/о н/о +14.4 +8.8 69 +13 +13 1017.6 1017.1
10 22.08 В 4
{7}
н/о н/о +14.8 +8.1 64 +14 +14 1016.9 1016.3
11 22.08 В 5
{7}
н/о н/о +16.3 +8.0 58 +15 +15 1015.9 1015.3
12 22.08 В 4
{7}
н/о н/о +16.9 +7.8 55 +16 +16 1015.0 1014.5
13 22.08 В 4
{8}
н/о н/о +17.9 +8.8 55 +18 +18 1014.1 1013.6
14 22.08 СВ 3
{7}
н/о н/о +17.0 +8.4 57 +17 +17 1013.3 1012.7
15 22.08 СВ 4
{6}
н/о н/о +18.0 +9.1 56 +18 +18 1012.3 1011.8
16 22.08 В 2
{5}
н/о н/о +17.6 +10.0 61 +18 +18 1011.6 1011.1
17 22.08 ЮВ 2
{4}
н/о н/о +17.5 +9.7 60 +18 +18 1011.2 1010.6
18 22.08 Ю 4
{8}
н/о н/о +16.5 +9.2 62 +16 +16 1011.2 1010.7 +11.6 +18.5
19 22.08 ЮВ 2
{8}
н/о н/о +14.3 +11.1 81 +14 +14 1011.5 1010.9
20 22.08 ЮВ 2
{3}
н/о н/о +13.3 +11.4 88 +13 +13 1011.4 1010.8
21 22.08 В 2
{4}
н/о н/о +12.8 +12.0 95 +12 +12 1011.4 1010.8
22 22.08 Ю 2
{4}
н/о н/о +12.9 +12.4 97 +12 +12 1011.4 1010.8
23 22.08 В 1
{3}
н/о н/о +12.4 +12.4 100 +12 +12 1011.2 1010.6
00 23.08 СВ 1
{8}
н/о н/о +11.9 +11.9 100 +12 +12 1011.3 1010.7
01 23.08 ЮЗ 4
{5}
н/о н/о +12.7 +12.4 98 +11 +11 1011.6 1011.0
02 23.08 Ю 3
{5}
н/о н/о +12.6 +11.3 92 +11 +11 1011.3 1010.8
03 23.08 ЮЗ 5
{6}
н/о н/о +12.4 +11.9 97 +10 +10 1011.0 1010.5
04 23.08 ЮЗ 5
{6}
н/о н/о +12.6 +12.0 96 +10 +10 1011.1 1010.5
05 23.08 ЮЗ 4
{6}
н/о н/о +12.5 +11.6 94 +10 +10 1011.3 1010.8
06 23.08 ЮЗ 3
{6}
н/о н/о +13.1 +11.8 92 +12 +12 1011.6 1011.1 +11.7 +16.6
07 23.08 ЮЗ 4
{7}
н/о н/о +14.2 +11.9 86 +13 +13 1011.8 1011.3
08 23.08 ЮЗ 3
{5}
н/о н/о +13.7 +11.6 87 +13 +13 1012.2 1011.7
09 23.08 ЮЗ 3
{4}
н/о н/о +13.6 +11.7 88 +12 +12 1012.5 1012.0
10 23.08 ЮЗ 4
{5}
н/о н/о +14.8 +11.4 80 +14 +14 1013.0 1012.5
11 23.08 ЮЗ 4
{6}
н/о н/о +15.1 +11.5 79 +14 +14 1013.5 1013.0
12 23.08 ЮЗ 6
{7}
н/о н/о +14.7 +11.1 79 +13 +13 1014.2 1013.7
13 23.08 З 4
{7}
н/о н/о +15.8 +11.0 73 +15 +15 1014.8 1014.3
14 23.08 З 5
{6}
н/о н/о +16.1 +10.9 71 +15 +15 1015.4 1014.8
15 23.08 З 4
{7}
н/о н/о +15.9 +10.7 71 +15 +15 1015.9 1015.3

 

Местоположение метеостанции Рорвик аэропорт (Норвегия): широта 64.83 долгота 11.14 высота над уровнем моря 4 м.

В архиве по умолчанию представлена погода в Рорвик аэропорту за последнюю неделю. Архивные данные за месяц целиком и за предыдущие месяцы, начиная с января 2011 года, Вы можете получить, выбрав интересующий диапазон дат из раскрывающегося списка и нажав кнопку "Ввод!".


*Определитесь, кто Вы:
робот инопланетянин человек

Внимание! Время в таблицах - всемирное. Для получения местного времени необходимо прибавить поправку, которая равна 1 ч.

Смотрите также архив погоды в соседних городах и на ближайших метеорологических станциях:

Погода на Маяке Nordoyan (Норвегия) (28 км)
Погода на Маяке Sklinna (Норвегия) (42 км)
Погода в Намсос аэропорту (Норвегия) (45 км)
Погода на Маяке Buholmrasa (Норвегия) (58 км)
Погода на Сомна-Квалёйа (Норвегия) (59 км)
Погода в Гартлэнде (Норвегия) (68 км)
Погода в Намсскугане (Норвегия) (82 км)
Погода в Брённёйсунн аэропорту (Норвегия) (86 км)
Погода в Стейнхьере (Норвегия) (91 км)
Погода в Снаса-Кжевя (Норвегия) (98 км)

Пояснения к столбцам:

Ветер - указаны скорость ветра в м/с - средняя за 10 мин, порывы в срок и между сроками (в фигурных скобках) и направление, откуда дует ветер: С - северный, СВ - северо-восточный, В - восточный, ЮВ - юго-восточный, Ю - южный, ЮЗ - юго-западный, З - западный, СЗ - северо-западный.
Видимость - горизонтальная дальность видимости в метрах или километрах. При видимости от 1 до 10 км при отсутствии осадков обычно наблюдается дымка, при ухудшении видимости до 1 км и менее - туман. В сухую погоду видимость может ухудшаться дымом, пылью или мглою.
Явления - указаны атмосферные явления, наблюдавшиеся в срок или в последний час перед сроком; фигурными скобками обозначены явления, наблюдавшиеся между сроками (за 1-3 часа до срока); квадратными скобками обозначены град или гололедные отложения с указанием их диаметра в мм.
Облачность - указаны через наклонную черту общая и нижняя облачность в баллах и высота нижней границы облаков в метрах; квадратными скобками обозначены формы облаков: Ci - перистые, Cs - перисто-слоистые, Cc - перисто-кучевые, Ac - высококучевые, As - высокослоистые, Sc - слоисто-кучевые, Ns - слоисто-дождевые, Cu - кучевые, Cb - кучево-дождевые. Подробнее классификацию облаков см. в Атласе облаков (PDF).
T - Температура воздуха - температура, измеренная на высоте 2 м над землей.
Td - Температура точки росы - температура, при понижении до которой содержащийся в воздухе водяной пар достигнет насыщения.
f - Относительная влажность воздуха - влажноcть воздуха, измеренная на высоте 2 м над землей.
Te - Эффективная температура - температура, которую ощущает одетый по сезону человек в тени. Характеристика душности погоды. При расчете учитывается влияние влажности воздуха и скорости ветра на теплоощущения человека.
Tes - Эффективная температура на солнце - температура, которую ощущает человек, с поправкой на солнечный нагрев. Характеристика знойности погоды. Зависит от высоты солнца над горизонтом, облачности и скорости ветра. Ночью, в пасмурную погоду, а также при ветре 12 м/с и более поправка равна нулю.
P - Атмосферное давление - приведенное к уровню моря атмосферное давление.
Po - Атмосферное давление - измеренное на уровне метеостанции атмосферное давление.
Tmin - Минимальная температура - минимум температуры воздуха на высоте 2 м над землей.
Tmax - Максимальная температура - максимум температуры воздуха на высоте 2 м над землей.
R - Количество осадков - Количество выпавших осадков за период времени, мм. При наведении курсора мыши на число - период времени, за который выпало указанное количество осадков.
R24 - Количество осадков - Количество выпавших осадков за 24 часа, мм.
S - Снежный покров - Высота снежного покрова, см. При наведении курсора мыши на число - состояние снежного покрова и степень покрытия местности в баллах.